Dewpoint
49 60 73 72 71 70 68 66 66 65 65 64 63 62 61 60 59 59 58 58 57 57 57 58 57 57 57 58 59 61 62 63 66 66 70 71 72 72 73 73 74 71 74
50 60 73 72 71 70 70 68 68 68 67 65 64 63 62 61 61 60 60 60 59 60 60 60 60 60 59 58 59 60 61 62 64 66 67 71 72 72 73 73 74 71 74
50 60 69 72 72 71 70 70 69 69 68 66 65 64 63 63 62 62 62 62 62 62 62 62 62 62 62 61 60 60 61 62 63 64 66 67 69 72 73 73 74 74 74
52 60 64 73 72 71 71 70 70 69 69 67 66 65 64 64 64 64 64 64 64 64 64 64 64 64 64 63 62 61 61 62 63 64 57 60 68 72 72 73 73 74 74
54 57 63 73 72 72 71 71 70 70 69 67 66 66 65 65 64 65 65 65 65 65 64 64 64 64 64 65 64 64 63 62 62 62 55 56 65 69 72 73 73 73 73
52 55 64 73 72 72 71 71 71 71 70 68 67 66 65 65 67 68 66 67 67 66 66 65 65 66 65 65 66 65 65 63 62 55 55 60 63 71 71 72 72 72 72
52 54 60 73 73 72 72 72 72 71 71 70 68 67 66 68 69 69 68 68 68 67 66 66 66 67 66 66 66 67 66 65 61 56 55 60 59 70 70 72 72 72 72
52 57 61 72 73 72 72 72 72 72 71 71 70 70 70 70 70 69 68 67 67 65 65 66 66 67 66 66 66 66 66 66 61 60 58 58 64 67 69 71 72 71 72
54 56 61 66 71 73 72 72 72 72 71 71 71 71 71 70 70 68 67 66 64 64 64 65 66 66 66 65 66 66 66 66 62 59 58 58 68 67 69 70 71 71 72
53 55 59 65 65 67 67 73 72 72 72 72 72 71 71 70 69 67 66 64 64 63 63 63 64 65 66 66 66 65 66 66 62 60 59 59 67 66 68 70 71 71 71
49 55 57 58 62 65 64 66 72 72 72 72 71 71 70 64 62 63 64 63 63 62 63 62 62 63 64 65 65 65 65 60 59 59 58 66 65 66 66 69 71 71 71
48 51 55 60 63 64 60 64 68 65 66 66 65 66 65 63 62 61 63 63 63 63 62 62 62 63 64 60 59 64 60 59 57 57 59 65 66 66 66 67 69 70 71
44 49 53 63 65 64 61 62 64 64 63 64 66 66 65 61 61 61 61 60 61 62 59 57 59 59 58 61 60 61 57 57 55 55 59 64 65 66 66 66 68 70 71
43 48 54 60 66 67 62 62 62 62 62 61 61 66 65 62 62 63 60 60 61 59 60 59 57 60 60 59 59 62 61 58 54 60 61 63 65 66 66 66 68 69 70
46 48 54 61 66 68 67 63 63 62 59 59 59 62 63 61 62 62 62 61 61 59 58 58 58 59 59 60 59 59 60 59 58 60 61 62 64 66 66 66 68 69 70
50 51 55 61 66 67 68 68 64 62 58 59 57 59 64 62 63 61 63 61 61 62 60 58 59 58 57 58 59 61 60 59 59 62 60 57 64 65 65 66 68 69 70
51 55 57 63 66 68 67 66 63 59 59 56 57 63 64 65 64 66 62 62 62 66 64 63 60 60 58 58 61 60 60 62 62 62 60 54 57 65 65 65 68 69 70
53 55 59 58 63 67 67 64 59 58 58 57 60 61 65 66 66 66 63 64 66 66 64 62 58 57 57 56 62 63 62 62 62 60 56 54 55 57 64 66 68 70 70
54 57 59 61 62 65 66 62 61 62 59 59 60 61 63 65 65 65 66 66 66 65 64 63 60 59 57 61 62 63 62 62 60 54 55 58 62 61 57 68 68 69 70
56 59 60 60 63 65 62 62 58 58 58 59 60 61 63 64 64 66 67 65 64 62 64 61 61 61 60 62 62 62 61 59 57 55 57 59 64 64 63 66 67 67 69
56 59 60 61 64 61 59 56 56 55 56 58 60 63 64 64 64 66 66 62 63 62 61 62 63 61 63 64 63 62 61 62 58 55 59 65 66 64 66 66 69 66 68
57 59 61 62 64 61 58 58 56 55 56 58 60 63 64 64 64 65 65 64 62 59 60 61 63 63 62 64 62 59 57 58 60 61 61 65 64 63 64 66 65 63 64
57 60 60 62 63 62 62 60 61 61 61 58 59 60 63 63 64 65 64 62 61 59 60 64 63 61 62 64 63 59 56 48 53 62 64 64 64 65 65 67 67 66 68
57 59 61 62 63 62 63 60 61 56 54 58 60 61 61 62 62 63 64 63 62 64 64 64 62 61 63 62 63 59 58 54 48 58 64 65 66 65 67 69 69 67 68
57 58 61 62 62 62 62 62 60 59 59 59 60 62 63 64 63 61 62 62 62 66 65 63 60 61 65 64 59 63 62 53 57 60 59 62 64 66 66 68 68 68 68
56 58 60 61 62 62 62 63 62 62 60 59 59 59 62 66 65 62 60 63 64 64 62 61 61 61 64 64 63 61 63 55 54 61 62 61 61 62 64 66 66 66 66
Lifted_Index
1 -1 -3 -4 -2 -1 0 1 2 2 3 3 4 4 5 5 5 5 6 6 6 6 6 6 6 6 7 6 6 5 5 4 3 2 0 -1 -2 -2 -3 -4 -4 -4 -4
1 -1 -4 -4 -3 -2 -1 0 1 2 2 3 3 4 4 5 5 5 5 5 5 5 5 5 5 5 6 6 6 5 5 5 4 3 1 -0 -2 -2 -3 -3 -4 -4 -4
0 -1 -3 -4 -4 -3 -2 -1 -0 0 1 2 2 3 3 3 3 3 3 3 3 4 4 3 3 3 4 4 5 5 5 5 4 4 3 1 -1 -2 -3 -3 -4 -4 -4
-0 -1 -3 -5 -4 -3 -2 -2 -1 -1 -0 0 1 1 2 2 2 2 2 2 2 2 2 2 2 2 2 3 4 4 5 5 5 5 5 3 -0 -2 -2 -3 -3 -4 -4
-1 -1 -3 -5 -5 -4 -3 -2 -2 -2 -2 -1 -0 0 0 1 1 1 0 0 0 1 1 2 2 2 2 2 2 3 4 5 5 5 6 4 1 -1 -2 -2 -3 -3 -3
-1 -2 -4 -5 -5 -4 -4 -4 -4 -3 -3 -2 -1 -1 -0 -0 -1 -1 -1 -1 -1 -0 0 1 1 1 1 2 2 2 3 4 5 6 6 5 2 -0 -2 -2 -2 -2 -2
-1 -2 -4 -5 -6 -5 -4 -4 -5 -5 -4 -3 -2 -2 -2 -2 -2 -2 -2 -2 -1 -1 -0 0 0 1 1 1 1 1 2 3 4 5 5 5 3 1 -1 -2 -2 -2 -2
-2 -3 -4 -6 -6 -6 -5 -5 -5 -5 -5 -4 -4 -3 -3 -3 -3 -3 -2 -2 -1 -0 0 0 0 1 1 1 1 1 1 2 3 4 4 4 3 1 -0 -1 -2 -2 -2
-3 -3 -4 -6 -6 -6 -6 -6 -6 -6 -6 -5 -5 -5 -5 -4 -4 -3 -2 -1 0 1 1 1 1 1 1 1 1 1 1 2 2 3 3 3 2 1 -0 -1 -2 -2 -2
-3 -3 -4 -5 -6 -6 -6 -6 -7 -7 -6 -6 -6 -6 -5 -4 -3 -2 -1 -0 1 1 1 2 1 1 1 1 1 1 1 2 2 2 2 2 2 1 0 -1 -2 -2 -2
-2 -3 -4 -5 -5 -6 -5 -6 -6 -7 -6 -6 -6 -5 -5 -3 -2 -1 -1 0 1 1 1 2 2 1 1 1 1 1 1 2 2 2 2 1 1 1 0 -1 -2 -2 -2
-2 -3 -4 -4 -5 -6 -5 -5 -6 -6 -5 -5 -5 -4 -4 -2 -1 -1 -1 -0 0 1 1 1 2 1 1 1 1 1 1 2 2 2 1 1 0 0 -0 -1 -2 -2 -2
-2 -3 -3 -4 -5 -5 -5 -5 -6 -5 -5 -4 -4 -4 -3 -2 -1 -1 -1 -0 0 0 1 1 1 1 1 1 1 1 1 2 2 1 1 1 0 -0 -0 -1 -2 -2 -3
-1 -2 -3 -4 -5 -6 -5 -5 -5 -5 -4 -4 -3 -3 -3 -2 -1 -1 -1 -1 -0 0 1 1 1 1 1 1 1 1 1 1 1 1 1 1 0 -0 -1 -1 -1 -2 -3
-1 -2 -3 -4 -5 -6 -6 -5 -5 -5 -4 -3 -2 -2 -2 -2 -2 -2 -1 -1 -0 0 1 1 1 1 1 1 1 1 1 1 1 1 1 1 1 0 -0 -1 -1 -2 -3
-1 -2 -3 -4 -5 -6 -6 -5 -5 -4 -3 -2 -2 -2 -2 -2 -2 -2 -1 -1 -0 -0 0 1 1 1 1 1 1 0 0 1 1 0 1 2 1 0 -0 -1 -2 -2 -3
-1 -2 -3 -4 -5 -6 -6 -5 -4 -3 -2 -2 -2 -2 -2 -2 -2 -2 -2 -1 -1 -1 -0 0 1 1 1 1 0 -0 -0 0 0 0 1 2 2 1 0 -0 -2 -2 -3
-1 -1 -2 -3 -4 -5 -5 -4 -3 -2 -2 -2 -2 -2 -2 -3 -2 -2 -2 -2 -1 -1 -1 -0 0 1 1 0 -0 -0 -1 -1 -0 1 2 2 2 1 0 -1 -2 -3 -3
-1 -1 -1 -2 -4 -4 -4 -3 -2 -2 -2 -2 -2 -2 -2 -3 -2 -2 -2 -2 -1 -1 -1 -1 -0 0 0 -0 -0 -1 -1 -1 -0 1 1 1 0 -0 -0 -1 -2 -3 -3
-0 -1 -1 -2 -3 -4 -3 -3 -2 -1 -2 -2 -2 -2 -2 -2 -2 -2 -2 -2 -1 -1 -1 -1 -0 -0 -0 -1 -1 -1 -1 -1 -1 0 0 -1 -2 -2 -2 -3 -3 -3 -3
0 -0 -1 -1 -2 -3 -3 -2 -1 -1 -1 -2 -2 -2 -2 -2 -2 -2 -2 -1 -0 -0 -0 -0 -1 -1 -1 -1 -1 -1 -2 -2 -1 -1 -2 -2 -3 -3 -4 -4 -3 -2 -2
0 -0 -1 -1 -2 -2 -2 -1 -1 -1 -1 -2 -2 -2 -2 -2 -2 -2 -2 -1 -0 -0 -0 -1 -1 -1 -1 -2 -2 -2 -2 -2 -2 -2 -3 -3 -4 -4 -4 -4 -3 -2 -1
0 -0 -1 -1 -2 -2 -1 -1 -1 -2 -1 -2 -2 -2 -2 -2 -2 -2 -2 -1 -1 -1 -1 -1 -1 -2 -2 -3 -3 -3 -2 -2 -2 -3 -4 -4 -4 -4 -5 -5 -4 -2 -2
-0 -0 -1 -1 -1 -1 -1 -1 -1 -1 -1 -1 -1 -2 -2 -2 -2 -2 -2 -1 -1 -1 -2 -2 -2 -2 -2 -3 -3 -3 -3 -2 -2 -3 -4 -4 -4 -4 -5 -4 -4 -3 -3
-0 -0 -1 -1 -1 -1 -1 -1 -1 -1 -1 -1 -1 -2 -2 -2 -2 -2 -2 -2 -2 -2 -2 -2 -2 -2 -3 -3 -3 -3 -3 -2 -2 -3 -3 -4 -4 -4 -4 -3 -3 -3 -2
-0 -0 -1 -1 -1 -1 -2 -2 -2 -1 -1 -1 -1 -2 -2 -2 -2 -2 -2 -2 -2 -2 -2 -2 -2 -2 -3 -3 -3 -3 -3 -2 -2 -3 -3 -3 -3 -3 -3 -3 -2 -2 -1